Fernie, Canada 16 day weather forecast

Slopes altitude range 1065 m - 1925m

Number of lifts: 9 Pistes: -1km

In some cases the lift and piste totals shown are for the ski domain (e.g. Three Valleys) rather than individual resort (e.g. Courchevel)

Overview

The 16 day weather forecast is fully updated 4 times every day.

    • Sun 23 SEP 2018
    • Sun 23
    • 2C 3C
    • Mon 24 SEP 2018
    • Mon 24
    • 2C 3C
    • Tue 25 SEP 2018
    • Tue 25
    • -1C 1C
    • Wed 26 SEP 2018
    • Wed 26
    • -1C 0C
    • Thu 27 SEP 2018
    • Thu 27
    • 0C 3C
    • Fri 28 SEP 2018
    • Fri 28
    • 1C 3C
    • Sat 29 SEP 2018
    • Sat 29
    • 0C 0C
    • Sun 30 SEP 2018
    • Sun 30
    • -5C -3C
    • Mon 01 OCT 2018
    • Mon 01
    • -8C -7C
    • Tue 02 OCT 2018
    • Tue 02
    • -13C -7C
    • Wed 03 OCT 2018
    • Wed 03
    • -9C 2C
    • Thu 04 OCT 2018
    • Thu 04
    • -7C 4C
    • Fri 05 OCT 2018
    • Fri 05
    • -5C 5C
    • Sat 06 OCT 2018
    • Sat 06
    • -5C 3C
    • Sun 07 OCT 2018
    • Sun 07
    • -4C 4C
    • Mon 08 OCT 2018
    • Mon 08
    • -4C 2C

Date:

Time Type 0°C level Temp Chill Snow Cloud Speed Gust Dir Press
3:00 2637m 4°C 4_5 0cm 98% 5mph 10mph 1013mB
6:00 2543m 2°C 2_4 0cm 50% 4mph 5mph 1014mB
9:00 2478m 2°C 2_3 0cm 24% 3mph 4mph 1014mB
12:00 2351m 3°C 3_3 0cm 28% 3mph 5mph 1014mB
15:00 2298m 3°C 3_4 0cm 100% 4mph 6mph 1014mB
18:00 2272m 6°C 6_5 0cm 100% 5mph 8mph 1012mB
21:00 2363m 6°C 6_5 0cm 99% 5mph 9mph 1012mB
0:00 2471m 6°C 6_5 0cm 99% 5mph 10mph 1011mB
3:00 2425m 4°C 4_4 0cm 94% 4mph 5mph 1014mB
6:00 2353m 3°C 3_3 0cm 96% 3mph 4mph 1016mB
9:00 2270m 3°C 3_3 0cm 98% 3mph 3mph 1017mB
12:00 2130m 3°C 3_3 0cm 98% 3mph 4mph 1018mB
15:00 2009m 3°C 3_3 0cm 99% 3mph 4mph 1018mB
18:00 2175m 7°C 7_4 0cm 99% 4mph 6mph 1017mB
21:00 2551m 8°C 8_6 0cm 30% 6mph 9mph 1016mB
0:00 2656m 8°C 8_7 0cm 28% 7mph 11mph 1016mB
3:00 2620m 2°C 2_2 0cm 2% 2mph 2mph 1021mB
6:00 2447m 1°C 1_3 0cm 2% 3mph 4mph 1024mB
9:00 2306m 0°C 0_3 0cm 11% 3mph 4mph 1025mB
12:00 1494m 1°C 1_3 0cm 24% 3mph 3mph 1026mB
15:00 1906m 2°C 2_1 0cm 99% 1mph 2mph 1026mB
18:00 2267m 9°C 9_4 0cm 99% 4mph 6mph 1023mB
21:00 2559m 8°C 8_6 0cm 91% 6mph 7mph 1020mB
0:00 2740m 8°C 8_5 0cm 49% 5mph 8mph 1019mB
3:00 2822m 3°C 3_3 0cm 0% 3mph 4mph 1022mB
6:00 2913m 0°C 0_1 0cm 43% 1mph 1mph 1023mB
9:00 2075m 0°C 0_1 0cm 96% 1mph 1mph 1023mB
12:00 1474m 0°C 0_1 0cm 98% 1mph 1mph 1023mB
15:00 3083m 3°C 3_1 0cm 100% 1mph 1mph 1023mB
18:00 2937m 11°C 11_4 0cm 100% 4mph 5mph 1020mB
21:00 2840m 11°C 11_6 0cm 100% 6mph 9mph 1017mB
0:00 3032m 11°C 11_5 0cm 100% 5mph 8mph 1016mB
3:00 2913m 7°C 7_5 0cm 100% 5mph 8mph 1019mB
6:00 2827m 3°C 3_4 0cm 100% 4mph 5mph 1021mB
9:00 2654m 1°C 1_4 0cm 99% 4mph 5mph 1021mB
12:00 2394m 3°C 3_4 0cm 98% 4mph 5mph 1022mB
15:00 2253m 3°C 3_4 0cm 100% 4mph 6mph 1023mB
18:00 2352m 10°C 10_3 0cm 100% 3mph 4mph 1020mB
21:00 2662m 10°C 10_4 0cm 100% 4mph 5mph 1017mB
0:00 2772m 10°C 10_5 0cm 100% 5mph 8mph 1014mB
3:00 2918m 5°C 5_3 0cm 99% 3mph 5mph 1014mB
6:00 3174m 3°C 3_3 0cm 75% 3mph 4mph 1013mB
9:00 3242m 2°C 2_2 0cm 43% 2mph 3mph 1012mB
12:00 3180m 3°C 3_2 0cm 38% 2mph 3mph 1012mB
15:00 3103m 4°C 4_2 0cm 66% 2mph 2mph 1014mB
18:00 3058m 13°C 13_4 0cm 34% 4mph 6mph 1015mB
21:00 3083m 12°C 12_5 0cm 24% 5mph 8mph 1014mB
0:00 3247m 7°C 7_7 0cm 50% 7mph 11mph 1014mB
3:00 2297m 2°C 2_6 0cm 81% 6mph 11mph 1017mB
6:00 3159m 0°C 0_5 0cm 55% 5mph 7mph 1017mB
9:00 3154m 0°C 0_4 0cm 15% 4mph 5mph 1017mB
12:00 1619m 0°C 0_4 0cm 15% 4mph 5mph 1016mB
15:00 1852m 2°C 2_4 0cm 23% 4mph 7mph 1014mB
18:00 3173m 10°C 10_3 0cm 21% 3mph 5mph 1011mB
21:00 2905m 10°C 10_4 0cm 1% 4mph 7mph 1009mB
0:00 3127m 10°C 10_6 0cm 2% 6mph 11mph 1010mB
3:00 1815m 2°C 2_7 0cm 45% 7mph 14mph 1014mB
6:00 1408m -1°C -1_6 0cm 46% 6mph 14mph 1017mB
9:00 1242m -4°C -4_5 1cm 100% 5mph 8mph 1021mB
12:00 1116m -3°C -3_5 3cm 100% 5mph 8mph 1021mB
15:00 1054m -5°C -5_5 2cm 100% 5mph 7mph 1022mB
18:00 1379m -3°C -3_4 3cm 99% 4mph 6mph 1021mB
21:00 1783m -3°C -3_4 1cm 82% 4mph 5mph 1020mB
0:00 1660m -3°C -3_5 0cm 74% 5mph 6mph 1019mB
3:00 878m -6°C -6_4 0cm 56% 4mph 4mph 1022mB
6:00 720m -7°C -7_3 0cm 55% 3mph 4mph 1023mB
9:00 605m -8°C -8_3 0cm 68% 3mph 3mph 1024mB
12:00 661m -7°C -7_3 0cm 76% 3mph 3mph 1024mB
15:00 899m -6°C -6_3 1cm 92% 3mph 4mph 1024mB
18:00 1752m -1°C -1_3 0cm 76% 3mph 4mph 1022mB
21:00 1830m -1°C -1_3 1cm 90% 3mph 4mph 1020mB
0:00 1494m -2°C -2_4 1cm 93% 4mph 6mph 1019mB
3:00 1000m -5°C -5_4 1cm 100% 4mph 7mph 1022mB
6:00 718m -7°C -7_4 2cm 99% 4mph 7mph 1024mB
9:00 411m -9°C -9_4 1cm 95% 4mph 4mph 1026mB
12:00 0m -7°C -7_2 1cm 70% 2mph 3mph 1027mB
15:00 344m -10°C -10_2 0cm 8% 2mph 2mph 1027mB
18:00 1680m -1°C -1_4 0cm 6% 4mph 5mph 1023mB
Morning 0.322917mm 0.0625 752m -8°C -8_3 0cm 23% 3mph 4mph 1025mB
Afternoon 0.0572917mm 0 1998m 2°C 2_3 0cm 0% 3mph 3mph 1027mB
Morning 0.0260417mm 0 1027m -6°C -6_2 0cm 71% 2mph 3mph 1030mB
Afternoon 0.3125mm 0 2378m 4°C 4_5 0cm 71% 5mph 8mph 1022mB
Morning 0.572917mm 0 1440m -3°C -3_4 0cm 5% 4mph 5mph 1022mB
Afternoon 0.28125mm 0 2304m 5°C 5_7 0cm 0% 7mph 11mph 1016mB
Morning 0.0208333mm 0 1410m -4°C -4_5 0cm 18% 5mph 6mph 1022mB
Afternoon 0.00520833mm 0 2064m 3°C 3_6 0cm 60% 6mph 9mph 1021mB
Morning 0.0520833mm 0 1339m -4°C -4_4 0cm 0% 4mph 5mph 1020mB
Afternoon 0.078125mm 0 2282m 4°C 4_7 0cm 87% 7mph 12mph 1012mB
Morning 0.015625mm 0 1713m -2°C -2_7 0cm 98% 7mph 12mph 1006mB
Afternoon 0.0208333mm 0.25 2062m 2°C 2_12 2cm 41% 12mph 29mph 1007mB

16 day outlook at a glance

Forecast issued: 23/09/2018 05:11:11

Chat

Your comments and questions. In a resort? Let us know what it's like!


Characters left 250

For terms and conditions see Readers Comments on the Cookie and privacy policy page.